GFSNE_prec_pwat_192.txt.gz
Precipitable_Water
0.40 0.36 0.32 0.30 0.28 0.26 0.24 0.23 0.21 0.18 0.19 0.23 0.18 0.19 0.17 0.18 0.17 0.22 0.25 0.20 0.21 0.21 0.20 0.21 0.22 0.22 0.22 0.22 0.22 0.23 0.25 0.29 0.32 0.36 0.41 0.48 0.53 0.56
0.38 0.35 0.32 0.30 0.28 0.27 0.25 0.23 0.22 0.21 0.20 0.21 0.17 0.18 0.18 0.15 0.15 0.19 0.21 0.21 0.18 0.18 0.19 0.21 0.21 0.20 0.21 0.21 0.21 0.21 0.22 0.23 0.26 0.29 0.33 0.37 0.43 0.48
0.38 0.35 0.32 0.30 0.27 0.26 0.25 0.23 0.21 0.21 0.21 0.18 0.18 0.19 0.18 0.17 0.17 0.18 0.19 0.20 0.15 0.15 0.16 0.20 0.20 0.19 0.19 0.20 0.19 0.19 0.20 0.21 0.22 0.23 0.26 0.30 0.34 0.38
0.36 0.35 0.31 0.29 0.28 0.26 0.23 0.21 0.20 0.21 0.19 0.18 0.18 0.18 0.17 0.18 0.17 0.16 0.16 0.17 0.13 0.13 0.15 0.18 0.18 0.18 0.18 0.18 0.18 0.19 0.19 0.19 0.20 0.21 0.22 0.24 0.27 0.30
0.37 0.35 0.31 0.31 0.28 0.26 0.23 0.22 0.21 0.20 0.20 0.19 0.18 0.18 0.18 0.18 0.17 0.16 0.16 0.18 0.13 0.12 0.13 0.16 0.18 0.17 0.17 0.17 0.17 0.17 0.18 0.18 0.19 0.20 0.20 0.20 0.22 0.24
0.39 0.36 0.32 0.31 0.28 0.25 0.25 0.24 0.24 0.22 0.21 0.19 0.19 0.18 0.17 0.18 0.17 0.15 0.16 0.17 0.15 0.13 0.14 0.14 0.16 0.18 0.17 0.16 0.16 0.16 0.16 0.17 0.18 0.18 0.19 0.19 0.20 0.21
0.37 0.33 0.32 0.31 0.28 0.28 0.26 0.24 0.22 0.23 0.22 0.20 0.19 0.19 0.17 0.16 0.16 0.17 0.15 0.16 0.20 0.15 0.16 0.15 0.15 0.19 0.18 0.16 0.15 0.15 0.16 0.16 0.16 0.17 0.18 0.18 0.19 0.19
0.38 0.34 0.33 0.30 0.27 0.27 0.27 0.25 0.25 0.23 0.22 0.21 0.20 0.18 0.16 0.18 0.17 0.17 0.16 0.15 0.15 0.20 0.15 0.17 0.16 0.18 0.18 0.16 0.14 0.14 0.15 0.15 0.15 0.16 0.16 0.17 0.17 0.18
0.37 0.34 0.33 0.31 0.27 0.26 0.24 0.22 0.21 0.22 0.23 0.22 0.20 0.20 0.19 0.16 0.17 0.17 0.16 0.16 0.15 0.16 0.14 0.16 0.17 0.17 0.19 0.19 0.14 0.14 0.14 0.14 0.14 0.15 0.15 0.15 0.15 0.16
0.36 0.36 0.33 0.30 0.29 0.26 0.25 0.24 0.22 0.22 0.22 0.22 0.22 0.21 0.21 0.20 0.19 0.18 0.17 0.18 0.19 0.18 0.14 0.14 0.17 0.16 0.18 0.19 0.17 0.15 0.15 0.14 0.14 0.14 0.15 0.14 0.14 0.16
0.37 0.37 0.35 0.32 0.28 0.26 0.24 0.23 0.23 0.22 0.21 0.21 0.20 0.19 0.18 0.17 0.17 0.20 0.17 0.16 0.15 0.15 0.14 0.14 0.15 0.15 0.17 0.18 0.18 0.16 0.15 0.14 0.14 0.14 0.14 0.14 0.14 0.15
0.36 0.37 0.36 0.30 0.26 0.25 0.24 0.23 0.21 0.21 0.21 0.20 0.20 0.19 0.20 0.18 0.17 0.19 0.18 0.15 0.14 0.15 0.15 0.13 0.14 0.14 0.12 0.17 0.17 0.17 0.16 0.15 0.14 0.14 0.14 0.14 0.14 0.14
0.35 0.35 0.33 0.30 0.25 0.24 0.24 0.24 0.22 0.22 0.20 0.20 0.21 0.22 0.22 0.21 0.20 0.18 0.17 0.16 0.14 0.14 0.14 0.14 0.15 0.14 0.13 0.13 0.15 0.15 0.15 0.15 0.14 0.14 0.14 0.14 0.14 0.13
0.33 0.34 0.30 0.27 0.24 0.23 0.24 0.23 0.21 0.20 0.20 0.21 0.21 0.21 0.21 0.20 0.19 0.18 0.16 0.16 0.15 0.13 0.14 0.13 0.14 0.14 0.13 0.13 0.13 0.15 0.14 0.14 0.14 0.13 0.13 0.14 0.14 0.14
0.36 0.32 0.28 0.25 0.24 0.23 0.22 0.20 0.19 0.21 0.21 0.20 0.20 0.20 0.21 0.20 0.19 0.18 0.18 0.17 0.16 0.16 0.14 0.13 0.13 0.14 0.14 0.14 0.13 0.13 0.12 0.13 0.14 0.12 0.12 0.13 0.13 0.14
0.35 0.30 0.27 0.26 0.24 0.24 0.21 0.20 0.22 0.22 0.21 0.20 0.20 0.21 0.21 0.21 0.20 0.18 0.17 0.16 0.15 0.16 0.16 0.14 0.13 0.13 0.13 0.14 0.13 0.13 0.13 0.11 0.13 0.12 0.11 0.12 0.13 0.13
0.32 0.29 0.27 0.26 0.24 0.23 0.22 0.21 0.22 0.21 0.19 0.20 0.19 0.19 0.21 0.21 0.19 0.18 0.16 0.15 0.14 0.13 0.13 0.13 0.13 0.13 0.13 0.12 0.11 0.12 0.11 0.11 0.11 0.11 0.11 0.11 0.12 0.12
0.29 0.28 0.26 0.25 0.23 0.22 0.22 0.21 0.21 0.20 0.20 0.19 0.19 0.19 0.20 0.20 0.18 0.17 0.15 0.14 0.13 0.12 0.11 0.11 0.11 0.11 0.11 0.13 0.13 0.10 0.10 0.09 0.10 0.10 0.10 0.09 0.10 0.11
0.28 0.27 0.26 0.24 0.24 0.23 0.22 0.21 0.21 0.21 0.20 0.18 0.18 0.18 0.19 0.19 0.16 0.16 0.15 0.13 0.12 0.11 0.10 0.10 0.10 0.09 0.09 0.09 0.12 0.12 0.10 0.09 0.09 0.09 0.09 0.09 0.08 0.09
0.29 0.27 0.25 0.25 0.24 0.22 0.22 0.21 0.21 0.20 0.19 0.18 0.17 0.18 0.19 0.19 0.17 0.16 0.15 0.14 0.12 0.11 0.10 0.10 0.10 0.09 0.09 0.09 0.09 0.11 0.11 0.09 0.08 0.08 0.08 0.08 0.08 0.09
0.29 0.27 0.27 0.26 0.25 0.23 0.23 0.22 0.22 0.20 0.19 0.19 0.18 0.18 0.20 0.19 0.18 0.17 0.16 0.13 0.12 0.12 0.11 0.10 0.10 0.09 0.09 0.10 0.10 0.10 0.10 0.10 0.09 0.08 0.07 0.07 0.06 0.06
0.28 0.27 0.27 0.27 0.26 0.24 0.24 0.23 0.22 0.21 0.21 0.20 0.19 0.19 0.20 0.20 0.18 0.17 0.17 0.16 0.13 0.12 0.11 0.10 0.10 0.10 0.09 0.08 0.08 0.08 0.09 0.09 0.09 0.08 0.08 0.08 0.07 0.06
0.30 0.28 0.28 0.28 0.27 0.25 0.24 0.23 0.22 0.22 0.22 0.21 0.20 0.20 0.21 0.20 0.19 0.19 0.17 0.15 0.14 0.13 0.11 0.11 0.10 0.10 0.09 0.09 0.08 0.08 0.09 0.08 0.07 0.07 0.08 0.09 0.09 0.09

GFSNE_prec_pwat_195.txt.gz
Precipitable_Water
0.54 0.55 0.50 0.45 0.43 0.39 0.36 0.33 0.30 0.26 0.26 0.30 0.25 0.23 0.21 0.23 0.18 0.26 0.28 0.20 0.18 0.17 0.18 0.19 0.20 0.21 0.22 0.23 0.23 0.23 0.24 0.24 0.24 0.26 0.28 0.32 0.37 0.43
0.57 0.55 0.47 0.44 0.41 0.38 0.34 0.32 0.31 0.30 0.27 0.28 0.21 0.22 0.20 0.19 0.19 0.24 0.24 0.22 0.18 0.15 0.16 0.18 0.18 0.19 0.21 0.21 0.21 0.21 0.22 0.22 0.23 0.23 0.24 0.27 0.30 0.35
0.64 0.50 0.44 0.42 0.38 0.36 0.34 0.31 0.28 0.27 0.27 0.24 0.24 0.24 0.22 0.21 0.21 0.22 0.25 0.22 0.18 0.14 0.15 0.17 0.17 0.18 0.19 0.19 0.19 0.19 0.20 0.21 0.21 0.22 0.22 0.23 0.26 0.28
0.51 0.46 0.41 0.40 0.39 0.37 0.34 0.31 0.29 0.27 0.28 0.22 0.23 0.22 0.22 0.21 0.21 0.21 0.19 0.17 0.15 0.14 0.14 0.15 0.16 0.17 0.18 0.18 0.18 0.18 0.18 0.19 0.19 0.20 0.20 0.21 0.22 0.24
0.48 0.43 0.41 0.40 0.40 0.38 0.34 0.31 0.28 0.25 0.26 0.25 0.22 0.22 0.22 0.21 0.21 0.20 0.19 0.22 0.14 0.14 0.14 0.16 0.16 0.18 0.18 0.17 0.17 0.18 0.18 0.18 0.18 0.19 0.18 0.18 0.18 0.21
0.46 0.46 0.42 0.41 0.41 0.37 0.35 0.32 0.28 0.26 0.26 0.24 0.22 0.21 0.21 0.21 0.20 0.19 0.20 0.21 0.19 0.15 0.16 0.16 0.17 0.20 0.19 0.16 0.16 0.17 0.17 0.18 0.18 0.18 0.18 0.17 0.17 0.18
0.48 0.44 0.43 0.43 0.42 0.38 0.34 0.31 0.29 0.29 0.26 0.24 0.22 0.21 0.20 0.20 0.21 0.21 0.19 0.19 0.24 0.21 0.16 0.20 0.18 0.21 0.21 0.18 0.15 0.16 0.17 0.17 0.17 0.17 0.17 0.17 0.16 0.18
0.44 0.43 0.42 0.41 0.40 0.36 0.36 0.33 0.34 0.30 0.27 0.24 0.23 0.22 0.21 0.20 0.21 0.22 0.19 0.18 0.20 0.23 0.15 0.21 0.19 0.20 0.21 0.20 0.17 0.16 0.17 0.16 0.16 0.16 0.16 0.16 0.16 0.17
0.44 0.42 0.42 0.42 0.39 0.36 0.34 0.31 0.30 0.29 0.28 0.28 0.23 0.22 0.20 0.20 0.20 0.21 0.18 0.19 0.18 0.19 0.15 0.21 0.21 0.19 0.20 0.21 0.19 0.17 0.18 0.17 0.16 0.16 0.16 0.16 0.15 0.17
0.43 0.41 0.42 0.39 0.37 0.33 0.32 0.28 0.28 0.26 0.26 0.26 0.24 0.24 0.23 0.20 0.21 0.20 0.19 0.22 0.22 0.21 0.16 0.16 0.20 0.18 0.19 0.21 0.21 0.19 0.18 0.17 0.16 0.16 0.16 0.16 0.15 0.16
0.44 0.45 0.44 0.38 0.37 0.34 0.30 0.28 0.27 0.26 0.26 0.25 0.24 0.21 0.19 0.19 0.21 0.23 0.22 0.20 0.19 0.20 0.18 0.15 0.18 0.17 0.18 0.19 0.20 0.20 0.18 0.18 0.17 0.16 0.16 0.16 0.16 0.16
0.47 0.52 0.44 0.39 0.36 0.35 0.33 0.29 0.26 0.24 0.22 0.20 0.19 0.18 0.19 0.17 0.20 0.24 0.21 0.19 0.17 0.19 0.19 0.14 0.16 0.16 0.16 0.22 0.20 0.22 0.20 0.18 0.18 0.17 0.17 0.17 0.16 0.16
0.52 0.48 0.44 0.41 0.35 0.35 0.34 0.32 0.28 0.26 0.23 0.22 0.22 0.21 0.22 0.22 0.22 0.21 0.21 0.20 0.17 0.17 0.17 0.15 0.16 0.16 0.15 0.15 0.19 0.20 0.19 0.18 0.18 0.17 0.17 0.16 0.17 0.17
0.50 0.48 0.45 0.39 0.34 0.35 0.34 0.32 0.28 0.26 0.24 0.23 0.22 0.22 0.22 0.22 0.22 0.21 0.19 0.19 0.17 0.17 0.16 0.14 0.16 0.15 0.14 0.14 0.15 0.17 0.18 0.18 0.17 0.16 0.16 0.15 0.17 0.17
0.51 0.47 0.41 0.39 0.34 0.34 0.33 0.29 0.26 0.24 0.23 0.23 0.22 0.22 0.23 0.23 0.22 0.20 0.19 0.18 0.17 0.18 0.17 0.14 0.15 0.15 0.15 0.15 0.15 0.15 0.15 0.15 0.16 0.15 0.14 0.14 0.15 0.15
0.47 0.41 0.40 0.37 0.34 0.31 0.28 0.26 0.24 0.25 0.24 0.23 0.23 0.23 0.22 0.20 0.22 0.22 0.21 0.19 0.18 0.20 0.19 0.17 0.15 0.15 0.15 0.15 0.14 0.15 0.15 0.13 0.14 0.13 0.12 0.13 0.14 0.15
0.42 0.39 0.37 0.35 0.31 0.27 0.25 0.23 0.25 0.25 0.24 0.25 0.23 0.22 0.20 0.21 0.22 0.22 0.20 0.19 0.18 0.17 0.17 0.18 0.17 0.15 0.15 0.14 0.13 0.14 0.13 0.13 0.12 0.11 0.11 0.11 0.12 0.13
0.40 0.37 0.36 0.31 0.28 0.27 0.24 0.23 0.25 0.24 0.24 0.24 0.22 0.21 0.20 0.20 0.20 0.20 0.19 0.18 0.17 0.16 0.14 0.14 0.13 0.13 0.13 0.15 0.16 0.13 0.12 0.12 0.11 0.11 0.11 0.10 0.10 0.11
0.38 0.38 0.34 0.29 0.29 0.27 0.25 0.24 0.24 0.24 0.24 0.23 0.21 0.20 0.20 0.19 0.18 0.18 0.17 0.16 0.15 0.14 0.13 0.12 0.12 0.11 0.11 0.11 0.15 0.14 0.12 0.12 0.11 0.10 0.10 0.09 0.08 0.08
0.39 0.35 0.31 0.30 0.29 0.27 0.26 0.25 0.25 0.25 0.24 0.22 0.21 0.20 0.19 0.18 0.17 0.17 0.17 0.17 0.16 0.14 0.13 0.12 0.12 0.11 0.10 0.11 0.11 0.13 0.14 0.11 0.10 0.09 0.09 0.09 0.09 0.09
0.37 0.33 0.32 0.30 0.28 0.28 0.27 0.26 0.26 0.26 0.24 0.22 0.21 0.21 0.20 0.19 0.19 0.19 0.18 0.18 0.16 0.14 0.13 0.12 0.13 0.12 0.12 0.12 0.12 0.12 0.12 0.13 0.12 0.10 0.09 0.08 0.08 0.07
0.32 0.32 0.31 0.31 0.30 0.29 0.29 0.28 0.27 0.26 0.25 0.23 0.22 0.22 0.22 0.21 0.20 0.20 0.20 0.19 0.15 0.16 0.15 0.13 0.13 0.12 0.12 0.11 0.10 0.10 0.11 0.12 0.12 0.10 0.10 0.10 0.08 0.07
0.32 0.32 0.32 0.31 0.31 0.31 0.30 0.29 0.27 0.27 0.25 0.24 0.23 0.23 0.23 0.21 0.21 0.21 0.21 0.20 0.19 0.17 0.15 0.14 0.13 0.13 0.12 0.12 0.11 0.11 0.11 0.11 0.10 0.09 0.09 0.11 0.11 0.10

GFSNE_prec_pwat_198.txt.gz
Precipitable_Water
0.62 0.60 0.57 0.56 0.56 0.56 0.55 0.54 0.46 0.37 0.36 0.35 0.29 0.27 0.26 0.27 0.26 0.31 0.27 0.23 0.20 0.19 0.19 0.19 0.18 0.20 0.20 0.20 0.21 0.21 0.22 0.23 0.24 0.25 0.26 0.27 0.28 0.29
0.63 0.62 0.58 0.59 0.59 0.61 0.51 0.48 0.46 0.42 0.35 0.37 0.31 0.28 0.25 0.24 0.25 0.30 0.27 0.23 0.20 0.17 0.18 0.17 0.18 0.18 0.19 0.19 0.19 0.19 0.20 0.21 0.22 0.23 0.24 0.25 0.27 0.27
0.61 0.63 0.60 0.62 0.69 0.54 0.49 0.44 0.42 0.42 0.37 0.34 0.32 0.30 0.24 0.22 0.25 0.28 0.27 0.22 0.19 0.17 0.16 0.16 0.16 0.17 0.17 0.18 0.18 0.18 0.18 0.19 0.20 0.21 0.21 0.22 0.23 0.24
0.67 0.64 0.67 0.73 0.63 0.50 0.42 0.39 0.38 0.41 0.35 0.30 0.30 0.27 0.25 0.27 0.25 0.23 0.26 0.21 0.18 0.16 0.15 0.16 0.17 0.18 0.18 0.17 0.17 0.17 0.18 0.18 0.19 0.20 0.20 0.20 0.21 0.21
0.73 0.74 0.78 0.67 0.49 0.46 0.40 0.38 0.36 0.37 0.35 0.30 0.27 0.28 0.27 0.26 0.23 0.23 0.21 0.21 0.17 0.16 0.16 0.18 0.18 0.20 0.19 0.17 0.16 0.17 0.17 0.17 0.17 0.18 0.18 0.18 0.19 0.20
0.79 0.81 0.69 0.51 0.48 0.45 0.40 0.38 0.36 0.36 0.33 0.30 0.28 0.28 0.26 0.25 0.24 0.21 0.21 0.23 0.18 0.18 0.16 0.18 0.20 0.21 0.20 0.18 0.15 0.16 0.17 0.17 0.17 0.17 0.18 0.17 0.18 0.20
0.77 0.71 0.55 0.51 0.50 0.47 0.41 0.38 0.36 0.34 0.33 0.29 0.28 0.27 0.25 0.22 0.20 0.22 0.23 0.23 0.23 0.23 0.18 0.18 0.20 0.21 0.21 0.19 0.17 0.16 0.16 0.17 0.17 0.17 0.18 0.18 0.18 0.19
0.71 0.63 0.53 0.51 0.50 0.46 0.45 0.42 0.40 0.34 0.32 0.31 0.28 0.25 0.24 0.23 0.24 0.22 0.21 0.20 0.19 0.26 0.17 0.20 0.21 0.20 0.21 0.19 0.18 0.17 0.17 0.17 0.17 0.17 0.18 0.19 0.18 0.19
0.67 0.56 0.52 0.50 0.48 0.46 0.43 0.41 0.41 0.41 0.38 0.34 0.29 0.26 0.24 0.24 0.23 0.22 0.20 0.20 0.21 0.23 0.16 0.19 0.22 0.19 0.19 0.19 0.19 0.18 0.18 0.17 0.17 0.17 0.18 0.18 0.17 0.18
0.59 0.56 0.49 0.47 0.45 0.42 0.39 0.39 0.39 0.39 0.39 0.37 0.32 0.28 0.25 0.24 0.23 0.23 0.21 0.20 0.20 0.19 0.16 0.17 0.21 0.17 0.19 0.19 0.21 0.19 0.19 0.18 0.17 0.17 0.17 0.17 0.17 0.17
0.57 0.51 0.50 0.45 0.43 0.41 0.41 0.38 0.37 0.36 0.37 0.36 0.31 0.29 0.25 0.23 0.23 0.21 0.19 0.20 0.20 0.20 0.19 0.14 0.18 0.16 0.18 0.19 0.21 0.22 0.20 0.19 0.19 0.18 0.18 0.17 0.17 0.17
0.56 0.54 0.46 0.44 0.40 0.43 0.39 0.36 0.33 0.32 0.31 0.29 0.26 0.23 0.21 0.21 0.23 0.24 0.25 0.20 0.19 0.18 0.20 0.14 0.16 0.15 0.15 0.22 0.21 0.22 0.20 0.20 0.19 0.19 0.18 0.17 0.18 0.17
0.54 0.50 0.47 0.42 0.46 0.44 0.41 0.36 0.33 0.33 0.30 0.26 0.23 0.22 0.20 0.19 0.21 0.23 0.24 0.22 0.19 0.18 0.19 0.14 0.15 0.16 0.15 0.15 0.18 0.21 0.20 0.18 0.18 0.17 0.17 0.15 0.18 0.17
0.51 0.49 0.49 0.51 0.50 0.45 0.44 0.40 0.37 0.32 0.29 0.27 0.24 0.22 0.21 0.21 0.22 0.20 0.20 0.21 0.21 0.19 0.18 0.14 0.15 0.15 0.14 0.14 0.15 0.18 0.18 0.18 0.17 0.15 0.15 0.13 0.16 0.16
0.52 0.51 0.52 0.54 0.48 0.45 0.44 0.42 0.39 0.34 0.30 0.26 0.24 0.24 0.23 0.24 0.22 0.20 0.18 0.18 0.16 0.15 0.15 0.13 0.14 0.15 0.14 0.15 0.15 0.15 0.15 0.15 0.16 0.14 0.13 0.12 0.14 0.15
0.53 0.50 0.52 0.51 0.46 0.43 0.42 0.43 0.38 0.34 0.29 0.26 0.26 0.26 0.25 0.23 0.19 0.19 0.19 0.19 0.18 0.18 0.20 0.18 0.16 0.14 0.13 0.15 0.15 0.14 0.16 0.13 0.13 0.12 0.11 0.12 0.13 0.14
0.49 0.48 0.45 0.43 0.42 0.39 0.40 0.40 0.36 0.31 0.28 0.28 0.27 0.25 0.23 0.20 0.19 0.21 0.21 0.20 0.18 0.19 0.18 0.19 0.18 0.16 0.15 0.15 0.13 0.15 0.15 0.13 0.13 0.11 0.11 0.10 0.11 0.12
0.44 0.41 0.40 0.41 0.39 0.37 0.37 0.36 0.32 0.29 0.28 0.28 0.27 0.24 0.21 0.20 0.20 0.20 0.19 0.18 0.18 0.19 0.17 0.18 0.16 0.15 0.15 0.17 0.18 0.16 0.14 0.13 0.12 0.11 0.11 0.09 0.09 0.10
0.40 0.39 0.39 0.39 0.38 0.38 0.35 0.31 0.27 0.28 0.28 0.27 0.25 0.24 0.22 0.22 0.20 0.19 0.18 0.18 0.18 0.17 0.16 0.15 0.13 0.13 0.11 0.12 0.17 0.17 0.14 0.13 0.12 0.11 0.11 0.10 0.09 0.09
0.38 0.39 0.39 0.38 0.38 0.37 0.34 0.28 0.28 0.27 0.26 0.26 0.24 0.24 0.23 0.22 0.19 0.18 0.17 0.16 0.16 0.17 0.15 0.14 0.13 0.13 0.12 0.12 0.12 0.13 0.17 0.14 0.12 0.11 0.11 0.10 0.10 0.10
0.39 0.39 0.39 0.39 0.39 0.39 0.31 0.29 0.28 0.27 0.25 0.25 0.23 0.24 0.23 0.21 0.19 0.18 0.17 0.17 0.18 0.17 0.16 0.15 0.16 0.15 0.14 0.14 0.13 0.14 0.15 0.15 0.15 0.13 0.12 0.10 0.09 0.09
0.40 0.39 0.40 0.40 0.40 0.36 0.32 0.31 0.29 0.28 0.26 0.25 0.24 0.24 0.23 0.22 0.20 0.19 0.18 0.17 0.17 0.17 0.17 0.17 0.17 0.15 0.14 0.14 0.13 0.13 0.13 0.15 0.15 0.14 0.13 0.12 0.10 0.08
0.40 0.40 0.41 0.41 0.37 0.34 0.32 0.31 0.30 0.29 0.28 0.26 0.25 0.25 0.24 0.22 0.22 0.21 0.21 0.20 0.19 0.18 0.19 0.17 0.17 0.16 0.15 0.15 0.14 0.14 0.14 0.14 0.14 0.12 0.11 0.12 0.11 0.11

GFSNE_prec_pwat_201.txt.gz
Precipitable_Water
0.71 0.74 0.65 0.63 0.61 0.61 0.59 0.57 0.53 0.52 0.50 0.45 0.44 0.43 0.40 0.39 0.37 0.33 0.31 0.27 0.26 0.24 0.23 0.22 0.21 0.20 0.20 0.20 0.21 0.21 0.21 0.21 0.23 0.23 0.22 0.24 0.27 0.28
0.74 0.73 0.63 0.60 0.58 0.61 0.61 0.61 0.61 0.59 0.46 0.47 0.43 0.40 0.37 0.35 0.35 0.32 0.31 0.28 0.25 0.22 0.20 0.20 0.19 0.19 0.19 0.19 0.19 0.19 0.20 0.21 0.21 0.22 0.21 0.22 0.24 0.26
0.74 0.69 0.59 0.55 0.56 0.57 0.65 0.65 0.67 0.63 0.47 0.43 0.43 0.40 0.35 0.30 0.33 0.33 0.32 0.27 0.25 0.21 0.19 0.18 0.18 0.18 0.18 0.17 0.17 0.18 0.19 0.19 0.20 0.20 0.19 0.20 0.22 0.24
0.77 0.66 0.55 0.54 0.55 0.63 0.65 0.69 0.69 0.60 0.46 0.39 0.39 0.38 0.33 0.31 0.31 0.31 0.29 0.25 0.23 0.21 0.19 0.19 0.19 0.19 0.18 0.16 0.16 0.17 0.18 0.18 0.18 0.18 0.18 0.18 0.20 0.21
0.77 0.64 0.56 0.55 0.61 0.69 0.74 0.74 0.60 0.51 0.49 0.42 0.39 0.37 0.32 0.31 0.31 0.31 0.28 0.23 0.22 0.22 0.20 0.20 0.21 0.21 0.19 0.17 0.15 0.16 0.17 0.17 0.17 0.18 0.18 0.17 0.18 0.20
0.73 0.60 0.57 0.67 0.74 0.77 0.76 0.63 0.51 0.48 0.44 0.41 0.39 0.34 0.31 0.31 0.29 0.26 0.24 0.23 0.21 0.21 0.20 0.20 0.21 0.22 0.20 0.19 0.18 0.16 0.16 0.17 0.17 0.17 0.18 0.18 0.18 0.20
0.68 0.65 0.74 0.80 0.81 0.78 0.66 0.49 0.49 0.42 0.41 0.39 0.36 0.33 0.30 0.29 0.26 0.27 0.25 0.23 0.23 0.22 0.21 0.21 0.21 0.22 0.20 0.19 0.19 0.16 0.16 0.16 0.16 0.17 0.17 0.18 0.18 0.20
0.68 0.76 0.79 0.78 0.75 0.69 0.56 0.52 0.46 0.42 0.40 0.37 0.35 0.31 0.29 0.29 0.29 0.26 0.26 0.23 0.21 0.26 0.23 0.20 0.21 0.19 0.19 0.20 0.19 0.16 0.17 0.16 0.16 0.17 0.17 0.17 0.18 0.19
0.71 0.72 0.73 0.73 0.72 0.60 0.53 0.51 0.48 0.47 0.44 0.37 0.34 0.31 0.29 0.30 0.29 0.27 0.26 0.24 0.23 0.23 0.23 0.18 0.21 0.18 0.20 0.19 0.18 0.17 0.17 0.17 0.17 0.17 0.17 0.18 0.18 0.17
0.69 0.70 0.69 0.69 0.67 0.60 0.50 0.52 0.47 0.47 0.45 0.40 0.37 0.34 0.33 0.32 0.30 0.28 0.26 0.26 0.26 0.24 0.21 0.16 0.20 0.18 0.20 0.19 0.20 0.19 0.19 0.19 0.18 0.18 0.18 0.18 0.19 0.18
0.66 0.67 0.67 0.66 0.63 0.54 0.49 0.47 0.48 0.44 0.49 0.45 0.39 0.38 0.37 0.34 0.31 0.27 0.23 0.22 0.20 0.19 0.18 0.17 0.18 0.16 0.17 0.18 0.21 0.22 0.20 0.19 0.18 0.18 0.18 0.17 0.18 0.19
0.62 0.62 0.64 0.62 0.57 0.51 0.47 0.43 0.44 0.42 0.45 0.42 0.40 0.39 0.37 0.33 0.30 0.27 0.24 0.20 0.20 0.19 0.21 0.15 0.16 0.15 0.14 0.21 0.21 0.22 0.20 0.19 0.18 0.17 0.17 0.15 0.17 0.18
0.58 0.58 0.60 0.59 0.54 0.52 0.48 0.43 0.40 0.46 0.45 0.40 0.36 0.33 0.30 0.28 0.27 0.27 0.28 0.26 0.22 0.20 0.21 0.19 0.16 0.15 0.14 0.16 0.18 0.21 0.20 0.18 0.17 0.16 0.15 0.14 0.15 0.17
0.56 0.58 0.58 0.55 0.54 0.50 0.46 0.42 0.45 0.47 0.40 0.36 0.31 0.29 0.27 0.26 0.26 0.27 0.27 0.26 0.25 0.22 0.21 0.19 0.15 0.14 0.14 0.13 0.14 0.18 0.18 0.17 0.16 0.15 0.14 0.12 0.14 0.15
0.56 0.56 0.55 0.54 0.50 0.47 0.44 0.44 0.45 0.38 0.36 0.30 0.31 0.29 0.26 0.26 0.26 0.24 0.24 0.23 0.23 0.21 0.18 0.15 0.15 0.15 0.14 0.13 0.13 0.15 0.14 0.15 0.15 0.13 0.12 0.11 0.12 0.14
0.55 0.53 0.53 0.51 0.48 0.46 0.47 0.48 0.43 0.39 0.34 0.33 0.31 0.30 0.29 0.27 0.25 0.22 0.18 0.17 0.16 0.16 0.18 0.16 0.15 0.14 0.13 0.14 0.14 0.13 0.15 0.13 0.14 0.13 0.12 0.11 0.11 0.13
0.49 0.48 0.45 0.44 0.44 0.45 0.46 0.46 0.43 0.41 0.35 0.35 0.33 0.30 0.28 0.27 0.25 0.22 0.19 0.18 0.17 0.17 0.18 0.19 0.18 0.16 0.16 0.15 0.13 0.15 0.15 0.15 0.14 0.13 0.12 0.11 0.10 0.11
0.43 0.40 0.40 0.40 0.42 0.44 0.43 0.42 0.42 0.41 0.38 0.36 0.36 0.29 0.27 0.26 0.24 0.22 0.21 0.19 0.17 0.18 0.19 0.20 0.18 0.16 0.16 0.17 0.18 0.15 0.16 0.15 0.14 0.14 0.13 0.11 0.10 0.11
0.41 0.40 0.39 0.39 0.39 0.40 0.41 0.40 0.40 0.41 0.41 0.38 0.33 0.29 0.28 0.25 0.23 0.21 0.20 0.19 0.18 0.18 0.19 0.20 0.18 0.15 0.13 0.12 0.18 0.20 0.17 0.16 0.15 0.14 0.14 0.13 0.11 0.11
0.40 0.38 0.37 0.39 0.39 0.40 0.40 0.39 0.40 0.40 0.39 0.37 0.31 0.29 0.28 0.24 0.23 0.22 0.20 0.19 0.18 0.17 0.16 0.16 0.16 0.15 0.13 0.13 0.15 0.17 0.18 0.17 0.16 0.14 0.14 0.14 0.14 0.14
0.40 0.40 0.40 0.39 0.39 0.39 0.39 0.39 0.39 0.39 0.38 0.31 0.29 0.28 0.27 0.24 0.23 0.22 0.21 0.19 0.18 0.16 0.15 0.15 0.16 0.17 0.16 0.16 0.14 0.14 0.17 0.18 0.17 0.16 0.16 0.14 0.13 0.12
0.40 0.39 0.40 0.40 0.40 0.40 0.39 0.39 0.38 0.38 0.33 0.29 0.28 0.27 0.26 0.25 0.23 0.22 0.21 0.19 0.18 0.16 0.16 0.16 0.16 0.17 0.17 0.16 0.15 0.15 0.15 0.16 0.18 0.18 0.17 0.15 0.13 0.11
0.39 0.39 0.39 0.39 0.39 0.39 0.39 0.38 0.38 0.35 0.30 0.28 0.27 0.27 0.26 0.24 0.24 0.23 0.22 0.20 0.19 0.18 0.17 0.16 0.17 0.17 0.17 0.16 0.16 0.16 0.15 0.16 0.16 0.15 0.15 0.14 0.14 0.14

GFSNE_prec_pwat_204.txt.gz
Precipitable_Water
0.85 0.83 0.77 0.73 0.70 0.67 0.65 0.66 0.51 0.48 0.50 0.54 0.54 0.63 0.58 0.50 0.48 0.41 0.39 0.34 0.31 0.31 0.31 0.30 0.27 0.26 0.24 0.23 0.23 0.22 0.23 0.23 0.23 0.23 0.23 0.24 0.26 0.27
0.94 0.86 0.83 0.77 0.73 0.69 0.70 0.68 0.57 0.51 0.50 0.55 0.62 0.66 0.53 0.52 0.47 0.39 0.36 0.34 0.32 0.30 0.29 0.27 0.25 0.24 0.22 0.21 0.21 0.21 0.21 0.21 0.21 0.20 0.20 0.22 0.24 0.25
0.89 0.87 0.81 0.78 0.75 0.73 0.73 0.70 0.59 0.53 0.52 0.59 0.69 0.58 0.55 0.47 0.41 0.39 0.37 0.32 0.31 0.28 0.27 0.25 0.23 0.22 0.21 0.20 0.20 0.19 0.20 0.20 0.19 0.18 0.19 0.20 0.23 0.24
0.89 0.89 0.88 0.87 0.83 0.81 0.80 0.71 0.60 0.56 0.58 0.64 0.68 0.56 0.49 0.46 0.40 0.36 0.34 0.33 0.30 0.29 0.27 0.25 0.24 0.22 0.20 0.19 0.18 0.18 0.18 0.18 0.17 0.17 0.17 0.18 0.20 0.22
0.96 0.91 0.88 0.85 0.80 0.79 0.72 0.67 0.58 0.61 0.67 0.71 0.61 0.52 0.45 0.45 0.39 0.38 0.33 0.32 0.31 0.29 0.27 0.26 0.25 0.24 0.22 0.20 0.18 0.18 0.17 0.17 0.16 0.17 0.17 0.17 0.18 0.20
0.92 0.92 0.88 0.83 0.80 0.74 0.70 0.65 0.63 0.67 0.72 0.70 0.58 0.48 0.46 0.43 0.40 0.34 0.31 0.31 0.27 0.28 0.27 0.26 0.26 0.25 0.23 0.21 0.20 0.17 0.16 0.16 0.16 0.17 0.17 0.17 0.17 0.19
0.90 0.89 0.86 0.84 0.81 0.75 0.70 0.65 0.67 0.67 0.68 0.64 0.53 0.46 0.44 0.40 0.36 0.35 0.32 0.28 0.27 0.27 0.26 0.26 0.26 0.25 0.23 0.22 0.21 0.18 0.16 0.16 0.17 0.17 0.17 0.17 0.17 0.18
0.83 0.83 0.82 0.80 0.75 0.69 0.68 0.74 0.73 0.70 0.66 0.56 0.50 0.44 0.40 0.40 0.37 0.35 0.32 0.27 0.24 0.28 0.25 0.25 0.26 0.23 0.23 0.23 0.21 0.18 0.16 0.16 0.17 0.17 0.17 0.17 0.16 0.16
0.79 0.76 0.73 0.72 0.69 0.67 0.73 0.72 0.71 0.69 0.61 0.53 0.45 0.46 0.40 0.38 0.36 0.34 0.31 0.27 0.25 0.28 0.27 0.24 0.25 0.22 0.23 0.24 0.21 0.18 0.17 0.17 0.17 0.18 0.18 0.17 0.18 0.16
0.74 0.71 0.69 0.66 0.64 0.69 0.66 0.65 0.62 0.56 0.54 0.49 0.47 0.45 0.39 0.39 0.36 0.34 0.31 0.30 0.29 0.30 0.30 0.23 0.25 0.22 0.23 0.23 0.21 0.19 0.19 0.18 0.18 0.18 0.18 0.17 0.18 0.17
0.66 0.65 0.64 0.61 0.64 0.68 0.66 0.61 0.56 0.52 0.54 0.50 0.51 0.49 0.43 0.40 0.37 0.34 0.31 0.29 0.27 0.27 0.29 0.26 0.23 0.22 0.22 0.20 0.20 0.21 0.20 0.20 0.18 0.18 0.17 0.15 0.17 0.16
0.62 0.62 0.62 0.62 0.63 0.64 0.62 0.60 0.53 0.49 0.53 0.48 0.50 0.48 0.44 0.42 0.39 0.35 0.32 0.27 0.27 0.25 0.26 0.23 0.22 0.20 0.16 0.20 0.20 0.22 0.22 0.21 0.19 0.18 0.16 0.14 0.15 0.15
0.57 0.58 0.61 0.61 0.61 0.62 0.61 0.58 0.53 0.49 0.51 0.49 0.45 0.48 0.45 0.40 0.39 0.38 0.35 0.30 0.27 0.24 0.27 0.23 0.21 0.19 0.17 0.18 0.20 0.21 0.21 0.19 0.18 0.16 0.15 0.14 0.14 0.15
0.53 0.57 0.59 0.60 0.59 0.61 0.59 0.57 0.54 0.50 0.47 0.49 0.43 0.48 0.42 0.40 0.37 0.36 0.33 0.31 0.30 0.27 0.29 0.26 0.21 0.18 0.16 0.15 0.16 0.19 0.19 0.18 0.16 0.15 0.14 0.12 0.13 0.14
0.51 0.52 0.54 0.53 0.54 0.54 0.55 0.54 0.53 0.50 0.46 0.46 0.44 0.46 0.43 0.39 0.38 0.34 0.32 0.31 0.31 0.31 0.29 0.26 0.20 0.18 0.17 0.15 0.15 0.16 0.16 0.16 0.15 0.14 0.13 0.12 0.12 0.13
0.50 0.51 0.51 0.51 0.50 0.50 0.49 0.50 0.50 0.49 0.45 0.45 0.45 0.43 0.39 0.35 0.34 0.31 0.28 0.28 0.27 0.25 0.25 0.23 0.20 0.18 0.16 0.16 0.16 0.15 0.16 0.13 0.15 0.14 0.13 0.12 0.12 0.13
0.47 0.46 0.46 0.47 0.45 0.42 0.44 0.47 0.47 0.46 0.42 0.44 0.41 0.38 0.32 0.35 0.31 0.29 0.27 0.25 0.23 0.21 0.19 0.19 0.19 0.19 0.18 0.16 0.15 0.15 0.15 0.15 0.16 0.14 0.13 0.12 0.12 0.13
0.42 0.40 0.40 0.42 0.43 0.41 0.43 0.42 0.43 0.40 0.42 0.42 0.38 0.37 0.34 0.34 0.31 0.27 0.25 0.22 0.20 0.19 0.19 0.20 0.19 0.18 0.18 0.18 0.19 0.16 0.16 0.16 0.17 0.15 0.14 0.13 0.12 0.14
0.39 0.40 0.40 0.41 0.42 0.42 0.40 0.40 0.39 0.40 0.42 0.41 0.39 0.36 0.36 0.34 0.31 0.27 0.26 0.23 0.21 0.21 0.21 0.22 0.19 0.17 0.15 0.14 0.18 0.21 0.17 0.18 0.17 0.15 0.15 0.14 0.14 0.15
0.40 0.40 0.41 0.42 0.41 0.41 0.40 0.40 0.39 0.40 0.41 0.40 0.38 0.37 0.36 0.36 0.29 0.27 0.27 0.23 0.22 0.21 0.21 0.22 0.20 0.18 0.15 0.14 0.15 0.18 0.21 0.18 0.17 0.16 0.16 0.16 0.17 0.17
0.38 0.39 0.41 0.41 0.41 0.41 0.41 0.40 0.40 0.39 0.39 0.39 0.38 0.38 0.37 0.35 0.28 0.29 0.26 0.23 0.22 0.21 0.19 0.18 0.19 0.19 0.17 0.16 0.15 0.16 0.18 0.21 0.19 0.17 0.17 0.16 0.15 0.15
0.39 0.39 0.40 0.40 0.40 0.39 0.39 0.38 0.38 0.38 0.38 0.38 0.38 0.38 0.37 0.33 0.29 0.28 0.25 0.23 0.22 0.20 0.19 0.18 0.18 0.17 0.16 0.15 0.14 0.15 0.17 0.18 0.20 0.20 0.19 0.18 0.16 0.13
0.38 0.38 0.39 0.39 0.39 0.38 0.38 0.38 0.37 0.37 0.38 0.38 0.37 0.37 0.36 0.30 0.30 0.28 0.25 0.24 0.22 0.20 0.19 0.18 0.18 0.17 0.16 0.16 0.16 0.17 0.17 0.17 0.18 0.17 0.17 0.18 0.17 0.17